Location: Cañada de la Miga
(34.7595°N, 106.2317°W)
Time: 08:27:23
(UTC+00:00)

Transit 4A - Pass Details

Date: 03 December 2021
Orbit: 864 x 980 km, 66.8° (Epoch: 16 January)

Event Time Altitude Azimuth Distance (km) Brightness Sun altitude
Rises 11:42:56 0° 334° (NNW) 3,627 - -26.7°
Reaches altitude 10° 11:45:27 10° 335° (NNW) 2,693 - -26.2°
Exits shadow 11:49:13 39° 339° (NNW) 1,418 8.6 -25.5°
Maximum altitude 11:51:48 84° 64° (ENE) 982 7.9 -24.9°
Drops below altitude 10° 11:58:12 10° 152° (SSE) 2,721 10.8 -23.7°
Sets 12:00:45 0° 153° (SSE) 3,667 11.6 -23.1°
